Wind_Speed
23 24 25 26 27 27 26 24 22 21 20 20 20 20 19 20 20 19 18 18 20 21 20 19 18 17 19 21 22 23 23 23 22 21 22 22 20 20 23 22 21 20 19 18 17 15 14 15 17 19 18 18 17 17 17 17 17 17 18 18 17 17 17
22 23 24 25 25 24 22 20 20 20 20 20 21 21 21 21 21 20 19 20 21 21 20 20 19 18 18 20 23 24 24 25 23 21 21 22 20 19 21 22 21 21 20 19 18 16 14 15 17 19 19 18 17 17 17 17 18 18 18 18 18 18 18
20 22 23 23 22 21 19 18 19 19 20 20 21 22 22 21 21 20 20 20 20 20 20 20 20 19 19 21 23 25 26 27 26 22 22 23 21 19 21 21 21 21 21 20 19 17 15 15 17 19 19 18 18 17 17 18 18 18 18 18 18 18 18
19 20 20 20 19 17 16 17 18 19 19 20 20 21 22 20 20 19 19 20 19 19 20 21 21 22 21 22 23 24 25 27 27 23 22 24 22 20 21 21 21 21 21 21 20 19 16 16 17 19 20 19 19 18 18 19 19 19 18 18 18 18 18
17 18 18 17 16 15 16 17 18 19 18 18 18 20 20 18 18 19 19 20 20 21 22 23 24 25 24 24 24 24 24 26 26 23 22 24 22 20 22 21 20 22 22 22 22 20 17 17 18 20 21 20 19 19 19 20 19 19 19 19 19 19 19
16 16 15 15 14 15 17 18 18 17 16 16 17 18 18 17 17 18 19 20 21 22 24 26 26 26 25 26 26 25 25 25 24 23 23 23 21 20 22 21 21 22 22 22 22 21 19 18 19 21 22 21 20 19 20 20 19 19 19 19 19 19 19
15 15 14 14 14 16 17 17 16 15 15 16 16 17 17 17 17 18 19 20 21 23 26 27 27 25 25 27 26 26 26 26 24 23 23 24 22 21 22 21 21 22 22 23 23 22 20 19 21 23 23 22 21 20 20 20 19 19 19 19 19 19 19
14 14 14 15 16 17 16 15 15 15 15 16 16 16 17 17 18 19 19 20 22 24 25 26 26 25 27 29 27 25 27 27 26 25 25 24 23 23 23 21 21 22 23 24 24 23 21 20 21 23 24 23 21 21 21 20 20 19 19 20 20 20 19
15 15 15 16 17 16 14 14 14 14 15 16 16 16 17 18 18 19 20 21 23 25 25 25 25 25 28 29 26 24 26 27 27 27 26 25 25 25 24 23 22 22 24 25 25 24 22 20 21 23 24 23 22 21 21 21 20 20 19 20 19 19 20
16 16 16 17 18 16 13 13 14 14 14 15 16 16 17 18 18 18 19 21 22 24 25 25 25 24 27 28 27 25 26 27 29 28 27 26 25 25 25 24 23 23 24 25 26 25 23 21 21 22 23 23 23 22 22 21 21 20 20 19 19 19 20
17 16 17 18 18 15 13 13 13 13 14 16 16 17 17 17 17 18 19 20 22 22 22 25 26 24 24 26 26 27 27 27 28 28 27 25 25 26 26 25 25 25 25 26 26 26 25 22 21 22 23 23 24 24 23 22 21 21 20 20 19 19 20
17 17 18 18 17 14 13 13 13 13 15 16 17 17 16 16 17 18 20 21 22 21 20 22 24 24 23 24 25 26 26 26 26 25 25 25 26 27 27 26 26 25 26 26 26 27 26 24 22 22 23 24 24 25 24 23 22 21 21 20 19 19 20
17 18 19 18 16 14 14 13 13 14 16 17 17 17 16 17 18 19 21 22 23 22 20 20 23 24 24 25 25 25 25 25 25 24 24 24 25 27 27 26 26 26 26 26 27 28 27 25 23 23 23 24 25 26 26 25 23 22 22 21 20 20 20
18 19 19 17 15 15 14 14 14 15 17 17 16 16 17 18 18 19 22 23 23 24 22 21 22 25 26 25 23 24 25 26 26 25 24 24 24 25 26 26 27 27 27 26 27 28 28 26 25 24 25 25 25 26 26 26 24 23 23 22 21 20 20
20 20 18 16 15 15 14 14 15 16 18 17 15 15 17 17 18 19 22 23 24 25 25 23 22 24 25 25 23 23 25 27 27 27 26 24 23 24 25 26 27 27 27 27 28 29 29 27 27 26 26 26 25 25 26 26 26 25 24 23 22 21 21
21 19 17 15 15 15 14 14 15 17 18 16 15 17 18 18 19 20 21 22 24 25 25 25 24 24 25 26 25 25 26 26 28 29 29 27 25 24 25 26 27 27 26 27 30 31 30 29 28 28 27 26 26 26 26 26 26 26 25 24 23 23 23
20 19 17 16 16 15 14 15 16 18 18 15 15 16 17 18 18 18 19 22 23 24 24 24 24 24 25 25 26 26 26 27 29 30 30 30 27 24 24 24 25 26 27 28 30 31 30 30 29 29 27 26 26 26 26 26 26 25 25 24 24 24 24
20 19 17 17 16 15 15 15 17 19 18 15 15 16 17 18 18 18 20 22 23 24 23 23 23 23 23 23 24 25 26 26 28 30 32 33 29 25 23 23 23 25 27 29 30 31 31 31 30 29 27 26 26 26 26 26 26 25 25 25 25 25 26
21 19 18 17 16 15 15 16 17 18 17 15 16 17 17 18 19 19 21 22 23 23 23 23 22 22 22 21 23 26 26 26 28 32 34 34 31 26 23 23 24 26 28 30 31 31 31 31 31 29 27 26 26 27 27 27 27 26 26 26 26 26 27
21 20 18 18 17 15 15 17 18 18 17 17 17 17 17 18 19 20 21 21 21 22 23 23 22 22 22 21 22 24 26 29 32 34 34 35 33 28 25 25 26 28 30 31 31 31 31 32 31 29 26 26 26 26 27 27 27 27 27 27 27 27 28
21 20 19 18 17 16 16 18 18 18 18 19 18 17 17 18 19 21 22 21 20 21 22 24 22 20 21 20 21 23 26 31 34 34 32 34 34 31 28 27 27 29 30 31 31 31 32 32 31 27 25 25 26 26 27 27 27 27 28 28 28 29 29
21 19 19 19 18 17 18 19 18 18 19 20 19 18 18 18 19 21 22 21 19 20 21 22 21 17 17 19 22 26 29 33 35 32 28 28 31 31 29 28 29 29 29 30 31 32 32 31 29 26 25 26 26 27 27 27 27 27 28 29 29 30 30
21 20 20 20 19 18 18 19 19 19 20 20 20 19 19 19 20 22 22 20 19 19 19 20 20 17 16 18 23 26 29 29 26 23 22 24 28 30 29 29 29 28 28 30 31 31 31 29 27 26 26 27 28 27 27 27 27 28 29 29 30 31 31
21 21 21 20 19 19 19 19 20 20 20 20 20 20 19 20 21 23 22 21 19 18 18 18 19 18 16 18 20 21 21 21 19 20 22 24 26 28 29 29 28 27 28 29 30 29 27 26 26 26 27 28 27 27 27 27 28 28 30 30 31 31 32
23 22 22 21 20 20 20 20 21 21 21 20 21 21 20 20 22 23 23 22 20 19 17 17 17 18 18 17 17 16 14 15 18 19 21 21 21 21 23 24 25 26 27 27 26 25 25 25 26 27 27 27 27 27 27 27 28 30 31 31 32 32 33
24 24 23 21 21 21 21 21 22 22 21 21 21 21 20 21 23 24 24 23 21 20 18 17 17 18 18 18 16 14 11 11 12 13 14 15 16 17 19 21 23 24 24 24 23 24 25 26 27 27 27 27 27 27 27 27 29 31 32 32 32 33 34
26 25 23 22 22 22 22 22 22 22 21 21 21 21 21 22 23 24 25 24 22 21 20 18 17 17 18 17 16 14 12 10 9 9 11 13 14 16 18 19 20 20 20 20 21 22 24 26 26 27 27 27 27 27 27 29 30 32 32 33 33 34 34
27 26 24 23 22 23 23 23 23 22 21 21 21 21 21 22 23 24 25 24 24 23 22 20 18 17 17 17 16 14 13 11 10 10 11 13 15 17 18 18 19 19 19 19 20 22 23 25 26 27 27 27 27 28 29 30 32 32 33 33 34 35 35
28 26 24 23 23 23 24 24 23 22 21 21 22 22 22 23 24 25 25 25 25 24 23 21 19 18 17 17 16 15 13 11 11 11 13 14 16 18 19 20 20 20 20 20 21 22 24 25 25 26 27 27 28 29 30 31 32 33 33 34 35 35 36
27 26 25 24 23 23 24 24 23 22 21 22 23 23 23 24 25 25 25 25 25 25 24 22 20 18 17 17 17 15 14 13 12 13 14 16 17 19 20 21 21 21 21 22 23 24 25 26 26 27 27 28 29 30 31 31 32 33 34 35 36 36 37
28 26 25 24 24 24 25 24 23 22 21 22 23 24 24 25 26 26 26 26 25 25 24 22 20 18 17 17 17 16 15 15 15 15 16 18 19 20 21 22 23 23 23 23 24 25 26 27 27 27 27 28 29 30 31 31 33 34 35 36 37 38 39
28 27 27 26 26 25 25 25 24 22 22 23 24 25 25 26 26 26 26 25 25 24 23 22 20 19 18 17 17 17 17 17 17 18 19 20 21 22 23 24 25 25 25 25 26 27 28 29 29 28 28 29 30 30 31 32 34 35 37 38 38 40 41
29 29 29 29 27 26 26 25 25 24 23 23 25 26 26 27 26 26 25 24 24 23 22 21 20 19 18 17 17 17 17 18 18 19 20 20 21 23 24 26 27 28 28 28 29 30 30 31 31 31 32 32 32 33 35 35 35 37 38 40 41 42 42
31 32 32 30 28 28 27 26 26 25 24 24 26 27 28 28 27 25 24 23 22 22 21 21 20 19 19 18 18 18 19 19 20 20 20 21 22 23 24 25 27 28 30 30 31 32 32 33 34 36 37 36 36 38 39 39 39 40 41 42 43 44 45
33 33 33 31 29 28 28 27 27 26 26 26 27 29 29 28 27 25 24 23 22 22 21 21 20 20 19 19 20 20 21 22 22 23 23 24 25 25 26 27 28 29 30 32 33 33 34 34 36 38 39 41 42 44 44 43 44 45 44 44 45 46 47
35 35 34 31 30 30 30 29 29 29 28 28 29 30 30 29 27 25 24 24 24 23 23 22 22 21 21 21 22 23 23 24 25 25 26 27 29 29 30 31 31 32 33 33 34 35 36 37 39 41 42 43 45 46 47 47 47 48 47 47 47 48 49
36 35 33 32 31 32 32 31 31 31 30 30 31 31 31 29 27 26 25 25 25 25 25 25 25 24 24 23 24 25 26 27 27 28 28 30 31 31 32 32 32 32 33 34 36 38 40 41 43 46 48 49 49 48 48 49 49 49 50 50 51 52 52
Wind_Direction
240 245 248 251 255 260 265 270 273 276 279 280 279 279 279 280 282 283 280 274 276 281 282 278 276 276 271 265 263 262 261 264 271 276 274 269 263 258 258 259 257 256 257 257 255 253 257 264 269 270 271 273 276 278 281 284 285 284 284 284 285 288 291
245 248 252 255 258 263 268 271 275 277 279 280 281 282 282 282 282 282 280 278 277 278 277 272 268 270 268 262 261 258 256 258 262 270 274 269 263 258 257 255 253 254 256 255 254 252 254 262 267 270 272 275 278 280 281 282 281 281 282 283 286 289 291
245 249 253 256 259 263 267 271 274 275 278 281 284 285 283 282 282 281 280 279 279 278 273 267 261 262 263 261 261 259 257 258 258 261 271 271 264 257 254 251 250 252 255 256 255 252 252 258 264 268 271 274 277 280 281 280 279 278 279 282 286 288 290
244 248 251 253 256 260 264 267 270 273 278 282 284 284 283 283 282 280 279 278 278 276 271 264 258 256 258 261 263 261 258 259 259 258 264 270 266 256 248 247 248 252 255 256 256 254 253 257 262 266 269 271 275 279 281 281 279 278 278 282 285 287 288
242 246 248 249 252 257 261 263 269 275 280 284 284 283 284 285 284 282 279 277 275 273 269 265 260 256 256 261 264 263 257 254 255 254 258 266 264 250 243 245 249 253 254 254 255 255 255 257 261 264 266 268 273 278 281 281 279 278 279 283 287 288 288
244 246 245 246 251 255 259 264 272 279 283 285 284 284 286 288 288 287 284 279 275 273 270 267 264 261 260 263 266 267 261 252 250 250 254 262 259 244 240 246 251 253 253 252 254 256 256 258 261 263 264 267 272 277 280 280 280 280 283 287 288 289 290
244 244 242 245 250 252 259 268 276 281 283 285 285 286 289 292 293 293 291 285 278 275 272 270 269 268 269 267 264 265 263 253 248 249 254 259 255 243 240 246 252 254 252 252 254 257 256 257 261 262 264 267 272 277 280 281 281 283 287 290 291 291 292
242 241 243 246 249 253 262 271 276 280 283 284 285 288 290 293 295 295 292 287 280 276 273 276 278 273 270 269 263 262 262 256 250 249 252 256 254 245 241 246 252 253 251 251 254 256 256 256 260 263 266 269 273 277 279 279 281 284 288 291 292 292 293
240 242 244 247 250 256 264 269 274 279 283 284 286 287 289 292 294 294 290 286 281 277 275 280 283 274 268 268 265 261 260 258 255 253 251 253 252 248 246 248 253 253 251 251 254 256 254 254 259 264 267 270 273 275 276 277 279 282 286 289 290 291 292
241 243 244 248 253 259 263 266 272 277 281 284 284 284 285 289 293 291 288 286 281 279 278 278 280 276 270 267 264 262 259 258 260 257 252 252 253 252 251 252 254 253 251 252 253 255 254 253 256 262 266 270 272 273 273 273 276 280 284 286 288 289 291
242 243 244 249 255 259 262 264 271 275 278 281 281 283 289 297 302 298 292 288 284 284 282 276 275 276 273 267 262 261 259 259 263 259 251 252 254 254 254 255 256 255 253 253 253 255 255 253 254 258 263 267 271 272 271 270 272 277 281 284 285 287 289
243 243 244 249 255 258 261 265 271 273 276 280 284 294 305 309 309 305 297 292 289 292 289 278 276 279 278 274 267 262 260 262 264 258 249 251 254 254 255 256 256 255 254 254 254 256 257 256 256 257 260 264 268 270 271 270 271 275 279 283 283 284 287
240 240 242 249 254 257 261 265 270 273 277 284 294 305 309 304 302 303 301 299 296 294 291 285 284 283 283 282 273 262 258 259 260 256 249 248 251 253 254 254 255 255 254 254 256 258 260 260 259 259 260 262 266 269 270 271 272 275 278 281 282 283 287
236 237 241 247 251 255 260 265 270 275 279 288 300 306 301 297 298 300 300 301 298 294 291 290 288 284 283 282 273 258 253 252 252 254 253 251 251 252 252 252 253 253 252 253 256 259 261 262 262 262 262 262 265 269 271 272 273 276 278 280 281 284 287
233 236 240 244 248 254 260 266 271 276 280 292 308 306 297 296 298 301 303 303 301 297 293 291 289 285 281 279 272 262 255 250 247 250 253 255 256 256 255 256 257 257 256 255 256 258 261 263 263 264 264 265 267 270 272 273 275 276 278 279 280 283 286
233 236 238 241 246 253 260 265 271 275 280 296 305 296 292 295 297 304 308 308 306 302 297 292 288 285 281 276 270 266 261 252 246 247 249 252 255 258 258 260 262 263 262 259 257 258 262 264 264 265 266 267 270 273 274 275 276 276 278 279 280 282 284
234 236 236 238 244 251 258 263 269 274 282 295 296 287 290 297 302 308 311 311 311 307 303 299 292 285 281 276 269 266 263 254 247 248 248 248 251 256 259 260 264 267 267 263 259 260 263 265 265 266 267 268 271 274 276 278 279 278 279 280 280 281 282
234 236 235 237 242 249 255 261 266 272 282 292 290 285 291 299 306 311 311 313 314 309 306 304 297 288 281 275 267 261 260 258 253 250 249 247 248 254 258 258 262 266 267 265 262 262 265 266 266 267 268 269 271 274 278 281 283 282 281 281 281 281 281
235 236 235 237 243 248 253 259 264 270 280 286 284 284 291 299 304 308 310 315 317 313 311 307 298 288 280 273 266 260 258 258 252 247 246 245 245 252 259 261 263 264 264 264 264 264 265 267 268 269 270 271 273 277 282 285 287 286 284 283 283 283 283
234 235 236 239 245 249 253 258 263 269 276 279 279 283 290 296 301 306 310 316 321 321 319 315 303 285 274 268 264 261 260 258 253 248 246 242 242 251 263 267 269 268 264 263 263 264 265 268 269 270 271 272 275 280 286 288 289 288 286 285 285 285 285
233 234 236 241 246 251 255 260 264 268 272 275 279 283 288 292 297 303 307 314 321 323 324 325 315 289 273 268 264 260 258 257 257 255 248 239 239 250 263 267 268 268 264 260 262 264 267 269 271 272 271 272 276 282 286 288 288 287 286 286 285 285 286
233 233 236 241 246 251 256 262 265 267 270 274 279 282 285 289 294 299 304 311 320 324 326 331 326 303 280 272 269 263 256 254 258 258 249 238 239 248 259 264 264 264 261 259 262 265 267 270 272 272 270 273 278 282 285 286 287 286 286 285 285 285 286
231 231 235 241 246 252 257 263 266 267 269 273 278 281 284 288 292 296 301 308 316 321 325 332 333 322 298 284 284 279 265 257 257 254 245 242 245 251 256 260 262 263 263 263 265 267 269 272 273 272 272 275 279 281 282 283 284 285 285 285 284 285 286
228 229 235 241 248 253 258 263 265 266 267 271 275 280 283 287 291 293 297 303 309 315 322 328 332 329 316 306 308 303 282 265 259 253 251 255 259 258 257 258 263 266 266 267 267 269 272 273 274 274 274 276 277 278 279 281 283 285 286 285 285 286 287
226 228 235 242 248 253 258 262 264 265 267 269 273 278 283 287 289 291 294 298 302 307 314 322 324 324 322 318 321 322 304 279 268 264 263 266 267 264 262 263 266 267 267 268 270 271 274 274 273 273 273 273 274 276 279 282 284 286 287 287 286 287 287
225 228 234 240 247 253 258 259 261 264 266 267 270 276 281 284 286 288 291 293 296 299 303 310 315 318 320 321 324 327 317 291 274 268 267 267 266 266 267 267 267 267 269 271 272 273 273 273 272 272 272 272 274 277 280 282 285 287 288 287 286 286 287
224 228 233 239 246 252 257 258 260 263 264 266 270 274 278 281 283 285 287 289 290 292 294 297 302 307 311 315 320 323 321 311 296 282 275 270 267 268 269 269 268 268 270 271 272 273 273 273 273 273 273 273 275 277 278 280 283 285 285 285 284 285 287
225 230 234 239 246 252 256 258 259 261 263 266 270 273 277 281 282 283 286 287 288 289 289 290 292 296 301 304 308 311 315 315 307 295 286 279 275 273 272 270 268 268 269 270 272 273 274 274 275 274 274 275 275 275 277 279 282 283 283 282 283 284 287
226 231 235 240 247 252 256 258 260 262 264 266 271 274 278 280 281 283 285 286 288 289 289 288 287 288 290 292 294 299 304 305 300 294 287 282 278 276 273 271 271 271 272 273 273 273 273 274 275 275 275 275 275 275 277 279 280 281 281 282 283 284 287
229 233 237 242 248 253 256 259 260 262 264 267 271 275 277 278 280 283 284 286 287 288 288 287 286 286 285 284 286 289 292 294 291 288 285 283 281 280 279 278 279 278 278 278 277 277 276 277 277 277 277 277 277 277 279 279 280 280 281 282 283 284 286
233 235 239 243 248 252 256 258 259 259 261 264 268 272 275 277 279 282 285 286 287 286 286 286 286 286 284 283 282 281 280 281 282 282 282 283 283 283 284 284 284 283 282 282 281 281 281 280 280 279 279 278 278 278 279 279 279 280 281 282 283 283 285
236 238 241 244 247 250 252 254 255 255 257 261 265 269 272 275 278 282 284 286 286 285 284 285 285 285 284 283 282 279 277 276 278 280 283 285 287 287 287 286 285 284 283 282 282 282 281 281 281 280 280 280 280 281 281 280 280 281 282 283 283 283 284
240 241 243 244 246 247 249 250 251 251 254 258 263 267 270 273 277 280 283 284 285 284 284 284 283 284 284 284 283 282 280 278 278 279 282 284 286 287 287 288 288 286 285 284 283 283 282 282 282 281 281 281 282 283 282 282 282 282 283 283 284 284 285
242 243 243 244 245 246 246 247 248 250 252 256 260 264 267 270 274 277 279 281 282 282 282 283 283 284 285 285 286 285 284 283 282 282 284 284 285 285 287 289 291 291 290 288 287 286 284 285 288 288 289 289 289 286 286 286 284 283 283 284 284 285 286
243 244 244 244 245 246 247 247 248 249 251 255 259 262 264 267 272 275 276 278 279 280 282 283 284 284 284 284 284 283 282 282 283 285 286 286 286 287 288 291 292 292 291 290 289 288 287 286 288 289 289 289 288 287 287 287 286 285 286 286 286 286 286
242 243 242 243 245 247 248 248 249 250 252 255 259 261 264 266 270 273 275 277 278 281 284 286 286 286 285 283 282 281 280 281 283 285 286 287 288 289 289 289 289 288 289 291 291 291 289 286 284 282 280 280 280 281 283 285 286 287 288 288 288 288 288
240 240 240 241 243 246 248 250 250 252 254 257 258 261 263 266 269 272 274 276 278 282 285 288 288 288 288 286 284 282 281 281 282 284 286 288 288 288 287 286 285 286 290 291 289 289 288 286 283 281 280 279 278 280 282 285 286 288 289 289 290 291 290
Height
5808 5809 5811 5812 5813 5814 5815 5815 5816 5817 5817 5817 5817 5817 5817 5816 5816 5815 5815 5815 5815 5814 5814 5813 5812 5812 5812 5812 5811 5811 5811 5810 5810 5810 5809 5809 5809 5809 5809 5809 5810 5811 5812 5812 5812 5812 5812 5812 5811 5811 5811 5811 5811 5810 5810 5810 5810 5809 5808 5808 5808 5807 5806
5807 5808 5809 5810 5811 5812 5813 5814 5814 5815 5815 5815 5814 5814 5814 5813 5813 5812 5812 5812 5812 5811 5811 5810 5809 5809 5809 5808 5808 5807 5807 5807 5807 5807 5807 5807 5807 5807 5807 5807 5808 5808 5809 5810 5810 5810 5810 5810 5809 5809 5809 5809 5808 5808 5808 5808 5808 5807 5807 5806 5805 5805 5804
5805 5806 5808 5809 5810 5811 5811 5812 5812 5812 5812 5812 5812 5811 5811 5811 5810 5810 5809 5809 5809 5809 5808 5807 5807 5806 5806 5805 5805 5804 5804 5804 5804 5805 5806 5805 5805 5805 5805 5805 5806 5806 5807 5808 5809 5809 5808 5808 5807 5807 5807 5807 5806 5806 5806 5805 5805 5805 5805 5804 5804 5803 5801
5804 5805 5806 5808 5808 5809 5810 5810 5809 5810 5810 5810 5809 5808 5808 5808 5807 5807 5807 5806 5806 5806 5805 5804 5803 5803 5803 5802 5802 5801 5801 5802 5802 5803 5804 5803 5803 5803 5803 5803 5804 5804 5805 5806 5807 5807 5807 5806 5805 5805 5805 5805 5804 5804 5803 5803 5803 5803 5803 5802 5802 5801 5800
5802 5804 5805 5806 5807 5807 5807 5807 5807 5807 5807 5807 5806 5806 5805 5805 5805 5805 5804 5804 5803 5803 5802 5801 5800 5799 5799 5799 5799 5798 5798 5798 5799 5800 5802 5801 5800 5801 5801 5801 5801 5802 5802 5803 5804 5805 5805 5804 5804 5803 5803 5803 5803 5802 5801 5801 5801 5801 5801 5800 5800 5799 5797
5801 5802 5804 5804 5805 5805 5805 5804 5805 5805 5804 5804 5803 5803 5803 5803 5803 5802 5802 5801 5800 5800 5799 5798 5797 5797 5797 5797 5797 5796 5796 5796 5796 5797 5798 5798 5798 5798 5798 5799 5799 5799 5800 5800 5801 5802 5803 5802 5802 5801 5801 5801 5801 5800 5799 5799 5799 5799 5798 5798 5798 5797 5795
5799 5800 5801 5802 5802 5802 5802 5802 5802 5802 5801 5801 5801 5801 5801 5801 5801 5800 5799 5799 5798 5796 5795 5794 5795 5796 5796 5795 5795 5795 5794 5794 5794 5794 5794 5795 5795 5795 5796 5796 5796 5797 5797 5798 5798 5799 5800 5800 5799 5799 5799 5799 5798 5798 5797 5797 5797 5796 5796 5796 5795 5794 5793
5797 5798 5799 5799 5799 5800 5800 5800 5799 5799 5799 5798 5798 5799 5799 5799 5798 5798 5797 5796 5795 5793 5792 5793 5794 5795 5793 5792 5792 5793 5792 5791 5791 5791 5792 5792 5792 5793 5793 5794 5794 5794 5795 5795 5795 5796 5797 5798 5797 5797 5796 5796 5796 5796 5795 5795 5794 5794 5794 5793 5793 5792 5790
5794 5795 5796 5796 5797 5797 5798 5797 5797 5796 5796 5796 5796 5796 5796 5796 5796 5795 5794 5793 5791 5790 5790 5791 5792 5792 5790 5788 5789 5790 5789 5789 5789 5789 5789 5790 5790 5790 5791 5792 5792 5792 5792 5792 5792 5793 5795 5795 5795 5794 5794 5794 5794 5794 5793 5793 5792 5792 5792 5792 5791 5790 5788
5792 5793 5793 5794 5794 5795 5795 5795 5794 5794 5793 5793 5793 5793 5793 5793 5793 5792 5791 5789 5788 5787 5788 5788 5788 5788 5787 5786 5786 5786 5786 5787 5787 5787 5788 5787 5788 5788 5789 5790 5790 5790 5790 5790 5790 5790 5792 5793 5793 5792 5792 5791 5791 5791 5791 5791 5791 5790 5790 5790 5789 5788 5786
5790 5790 5791 5792 5792 5793 5793 5792 5792 5792 5791 5791 5791 5791 5792 5793 5792 5791 5789 5786 5785 5786 5786 5785 5784 5784 5784 5783 5783 5784 5784 5785 5785 5785 5785 5785 5786 5786 5787 5787 5787 5787 5787 5787 5787 5788 5789 5790 5791 5791 5790 5789 5789 5789 5789 5789 5789 5788 5788 5788 5787 5786 5784
5787 5788 5789 5789 5790 5790 5790 5790 5790 5789 5789 5788 5788 5791 5793 5793 5790 5788 5786 5784 5784 5784 5784 5783 5781 5780 5780 5781 5782 5782 5782 5783 5783 5783 5783 5783 5783 5784 5784 5785 5785 5785 5784 5784 5785 5786 5787 5787 5788 5788 5788 5787 5787 5786 5786 5786 5786 5786 5785 5785 5784 5783 5782
5785 5786 5787 5787 5787 5787 5787 5787 5787 5787 5786 5786 5788 5790 5791 5789 5787 5786 5784 5783 5782 5782 5782 5781 5779 5777 5777 5778 5779 5779 5780 5780 5780 5781 5781 5780 5781 5781 5781 5782 5782 5782 5782 5782 5783 5783 5784 5784 5785 5786 5786 5785 5785 5784 5784 5783 5783 5783 5783 5782 5781 5781 5780
5783 5784 5784 5785 5785 5785 5785 5785 5785 5784 5784 5785 5788 5789 5787 5786 5784 5783 5781 5780 5779 5778 5778 5778 5776 5775 5775 5775 5776 5776 5777 5777 5777 5778 5778 5778 5778 5778 5778 5779 5779 5779 5779 5779 5780 5781 5781 5781 5782 5782 5783 5783 5783 5782 5782 5781 5781 5780 5780 5779 5779 5778 5777
5780 5781 5782 5783 5783 5783 5783 5783 5783 5782 5782 5784 5787 5787 5784 5783 5782 5780 5778 5778 5776 5775 5774 5774 5773 5772 5772 5773 5773 5774 5774 5774 5774 5775 5775 5775 5775 5775 5776 5776 5777 5777 5777 5777 5778 5778 5778 5778 5778 5779 5779 5780 5781 5780 5780 5779 5778 5778 5777 5777 5776 5775 5775
5778 5779 5780 5780 5780 5781 5781 5781 5780 5780 5780 5783 5786 5784 5782 5781 5779 5778 5776 5775 5774 5773 5771 5770 5770 5770 5770 5770 5771 5771 5771 5771 5771 5771 5772 5772 5773 5773 5773 5774 5775 5775 5775 5776 5775 5775 5775 5775 5776 5776 5776 5777 5778 5778 5777 5777 5776 5776 5775 5774 5774 5773 5772
5775 5776 5777 5778 5778 5779 5779 5779 5778 5777 5778 5782 5783 5781 5780 5779 5777 5776 5775 5773 5772 5770 5768 5768 5767 5767 5767 5767 5767 5767 5768 5768 5768 5769 5769 5770 5770 5771 5771 5772 5772 5773 5773 5773 5773 5773 5773 5773 5773 5773 5773 5774 5775 5775 5775 5774 5774 5774 5773 5772 5771 5770 5770
5773 5774 5775 5775 5776 5777 5777 5777 5776 5776 5777 5779 5780 5779 5778 5776 5775 5774 5773 5771 5769 5767 5765 5765 5764 5763 5763 5763 5763 5764 5764 5765 5766 5766 5766 5767 5768 5768 5769 5769 5769 5770 5770 5770 5770 5770 5770 5771 5770 5770 5770 5771 5772 5772 5772 5772 5771 5771 5770 5769 5768 5768 5767
5770 5771 5772 5773 5774 5775 5775 5775 5775 5775 5776 5777 5776 5776 5775 5774 5773 5772 5771 5769 5767 5764 5763 5762 5761 5760 5759 5760 5760 5760 5761 5763 5762 5761 5762 5764 5765 5765 5766 5766 5767 5767 5767 5767 5767 5767 5768 5768 5768 5768 5768 5769 5769 5770 5769 5769 5768 5768 5767 5766 5766 5765 5764
5767 5768 5770 5771 5772 5773 5773 5773 5773 5774 5775 5774 5773 5773 5773 5772 5771 5770 5768 5767 5765 5764 5761 5759 5757 5756 5757 5757 5758 5758 5758 5758 5757 5757 5758 5760 5761 5762 5762 5763 5763 5764 5764 5763 5764 5764 5765 5765 5766 5765 5766 5766 5767 5767 5766 5765 5765 5765 5764 5763 5763 5762 5761
5765 5766 5767 5769 5770 5770 5771 5771 5771 5772 5772 5771 5771 5771 5771 5770 5769 5768 5767 5765 5764 5762 5760 5757 5755 5753 5753 5755 5755 5755 5755 5753 5753 5753 5754 5756 5758 5759 5759 5759 5760 5761 5761 5761 5761 5762 5762 5763 5763 5763 5763 5764 5764 5764 5763 5762 5762 5762 5761 5760 5759 5759 5758
5762 5764 5765 5766 5767 5768 5768 5769 5769 5770 5770 5769 5768 5769 5768 5768 5767 5766 5765 5763 5762 5760 5758 5756 5754 5752 5751 5752 5752 5752 5750 5749 5749 5750 5750 5752 5754 5755 5755 5756 5757 5757 5758 5758 5759 5759 5760 5760 5760 5760 5760 5761 5761 5760 5760 5759 5759 5758 5758 5757 5756 5755 5755
5760 5762 5763 5764 5765 5766 5766 5766 5767 5768 5768 5766 5766 5766 5766 5765 5764 5763 5763 5762 5760 5758 5757 5755 5753 5752 5751 5751 5750 5749 5747 5746 5747 5748 5749 5750 5751 5751 5752 5753 5754 5755 5756 5756 5757 5757 5757 5757 5757 5757 5758 5758 5757 5757 5757 5756 5756 5755 5754 5753 5752 5752 5751
5758 5759 5760 5761 5762 5763 5764 5764 5764 5765 5765 5764 5763 5763 5763 5762 5762 5761 5760 5760 5759 5757 5756 5754 5752 5751 5751 5750 5749 5747 5746 5745 5746 5746 5747 5748 5749 5750 5751 5752 5753 5754 5754 5755 5755 5755 5755 5755 5755 5755 5755 5755 5754 5754 5753 5753 5752 5752 5751 5750 5749 5749 5748
5755 5756 5758 5759 5760 5760 5761 5761 5761 5762 5762 5762 5761 5760 5760 5760 5759 5759 5758 5758 5757 5756 5755 5753 5751 5750 5749 5748 5747 5746 5745 5745 5744 5745 5745 5747 5748 5749 5750 5751 5752 5752 5752 5753 5753 5753 5752 5752 5752 5752 5752 5751 5751 5750 5750 5750 5749 5748 5748 5747 5746 5745 5745
5752 5753 5755 5756 5757 5758 5758 5758 5758 5758 5759 5759 5759 5759 5758 5758 5757 5756 5756 5755 5755 5754 5753 5752 5750 5749 5748 5746 5745 5745 5744 5744 5743 5743 5744 5745 5746 5747 5748 5749 5749 5749 5749 5750 5749 5749 5749 5749 5749 5748 5748 5748 5747 5747 5747 5746 5746 5745 5744 5743 5742 5741 5741
5749 5750 5752 5754 5755 5755 5755 5755 5755 5756 5756 5756 5756 5756 5756 5756 5755 5755 5754 5753 5753 5752 5752 5751 5749 5748 5747 5746 5744 5744 5743 5743 5742 5742 5743 5743 5744 5745 5746 5746 5746 5746 5746 5746 5746 5746 5745 5745 5745 5745 5745 5744 5744 5744 5743 5743 5742 5741 5740 5739 5738 5737 5736
5746 5748 5750 5751 5752 5752 5753 5753 5753 5753 5753 5753 5753 5754 5754 5754 5754 5753 5752 5751 5751 5750 5750 5749 5747 5746 5745 5744 5743 5743 5742 5742 5741 5741 5742 5742 5743 5743 5743 5743 5742 5742 5742 5742 5742 5742 5741 5741 5741 5741 5741 5741 5740 5740 5740 5739 5738 5737 5736 5735 5734 5733 5732
5744 5745 5747 5749 5750 5750 5750 5750 5751 5751 5751 5751 5751 5751 5752 5752 5751 5751 5750 5749 5748 5748 5747 5746 5745 5744 5743 5742 5742 5741 5741 5741 5741 5741 5741 5741 5741 5741 5741 5740 5740 5739 5739 5739 5738 5738 5738 5738 5738 5738 5738 5737 5737 5737 5736 5735 5734 5733 5732 5731 5730 5729 5729
5742 5744 5745 5746 5747 5748 5748 5748 5748 5748 5749 5749 5748 5749 5749 5749 5749 5748 5748 5747 5746 5745 5744 5743 5743 5742 5741 5740 5740 5740 5739 5739 5739 5739 5739 5739 5739 5739 5739 5738 5738 5737 5737 5736 5736 5736 5736 5735 5735 5734 5734 5734 5734 5733 5732 5731 5730 5729 5728 5727 5726 5725 5724
5740 5741 5743 5744 5744 5745 5745 5745 5745 5746 5746 5746 5746 5746 5746 5746 5746 5746 5745 5745 5744 5743 5742 5741 5740 5740 5739 5738 5738 5737 5737 5737 5736 5736 5736 5736 5736 5736 5735 5735 5735 5735 5735 5734 5734 5734 5733 5733 5732 5731 5731 5730 5730 5729 5728 5727 5726 5724 5723 5722 5721 5720 5719
5738 5739 5740 5740 5740 5741 5741 5741 5742 5742 5743 5743 5743 5743 5743 5743 5743 5743 5743 5742 5742 5741 5740 5739 5738 5737 5736 5736 5735 5735 5735 5735 5734 5733 5733 5733 5733 5732 5732 5732 5732 5732 5732 5732 5732 5731 5730 5729 5728 5728 5727 5726 5725 5725 5723 5722 5721 5719 5718 5717 5716 5715 5714
5735 5736 5736 5736 5736 5737 5737 5738 5738 5739 5739 5740 5740 5740 5740 5741 5741 5741 5740 5740 5739 5739 5738 5737 5737 5736 5734 5734 5733 5733 5733 5732 5732 5731 5730 5730 5730 5729 5729 5729 5729 5729 5729 5729 5729 5728 5727 5726 5725 5724 5723 5723 5722 5721 5719 5718 5716 5715 5713 5712 5711 5709 5708
5732 5731 5732 5732 5733 5734 5734 5735 5735 5735 5736 5737 5737 5737 5737 5737 5738 5738 5738 5737 5737 5737 5736 5736 5735 5734 5733 5732 5731 5731 5730 5730 5729 5729 5728 5728 5727 5726 5726 5726 5726 5726 5726 5726 5725 5724 5723 5722 5721 5720 5718 5718 5717 5716 5715 5713 5711 5710 5708 5707 5705 5704 5702
5728 5728 5728 5729 5730 5731 5732 5732 5732 5733 5733 5734 5733 5733 5734 5734 5734 5735 5734 5734 5734 5734 5734 5734 5733 5732 5731 5730 5729 5729 5728 5728 5727 5727 5726 5725 5724 5723 5723 5723 5723 5722 5722 5722 5721 5720 5718 5717 5716 5716 5715 5714 5713 5711 5709 5708 5706 5705 5703 5702 5700 5699 5697
5724 5724 5725 5727 5728 5729 5729 5730 5730 5730 5730 5731 5730 5730 5730 5731 5731 5731 5731 5731 5731 5731 5731 5731 5730 5730 5729 5728 5727 5726 5726 5725 5725 5724 5723 5722 5721 5721 5720 5719 5719 5718 5718 5717 5717 5715 5714 5713 5712 5711 5711 5710 5708 5706 5704 5702 5701 5699 5698 5696 5695 5693 5691
5719 5720 5722 5723 5725 5725 5726 5727 5727 5727 5728 5728 5727 5727 5727 5728 5728 5727 5727 5727 5727 5727 5727 5727 5727 5726 5726 5725 5725 5724 5723 5722 5722 5721 5721 5719 5718 5718 5717 5716 5715 5715 5714 5713 5712 5711 5710 5708 5707 5706 5705 5704 5702 5700 5698 5696 5695 5693 5692 5690 5689 5688 5686